[[{"header":{"parameterUnit":"m.s-1","parameterCategory":1,"la1":30.2991,"la2":30.254,"lo1":-89.0895,"lo2":-89.0444,"dy":0.0017,"dx":0.0017,"nx":28,"ny":28,"refTime":"2024-09-01T09:00:00:Z","depth":0,"parameterNumber":2,"parameterNumberName":"U-component_of_WINDS"},"data":[0,0,0,0,0,0,0,0,0,0,0,0,0,0,0,0,0,0,0,0,0,0,0,0,0,0,0,0,0,0,0,0,0,0,0,0,0,0,0,0,0,0,0,0,0,0,0,0,0,0,0,0,0,0,0,0,0,0,-3.0713,-3.0712,0,-3.0675,-3.0675,-3.0675,-3.0563,-3.056,-3.0558,-3.0556,-3.0519,-3.0521,-3.0522,0,0,0,0,0,0,0,0,0,0,0,0,0,-3.0689,-3.069,-3.0713,-3.0712,-3.0712,-3.0675,-3.0675,-3.0674,-3.0563,-3.056,-3.0557,-3.0555,-3.0519,-3.0521,-3.0522,0,0,0,0,0,0,0,0,0,0,0,0,0,-3.068,-3.069,-3.0713,-3.0652,-3.0646,-3.0676,-3.0675,-3.0674,-3.0564,-3.056,-3.0557,-3.0553,-3.0518,-3.052,-3.0522,-3.0608,0,0,-3.0528,-3.0529,0,0,0,0,0,0,0,0,-3.0681,-3.0681,-3.0661,-3.0656,-3.065,-3.062,-3.0653,-3.0652,-3.0565,-3.0595,-3.0556,-3.0551,-3.0556,-3.0555,-3.0556,-3.0607,-3.0605,-3.0529,-3.053,-3.0531,-3.0531,0,0,0,0,0,0,0,-3.0682,-3.0682,-3.0698,-3.0661,-3.0654,-3.0627,-3.0621,-3.0652,-3.0597,-3.0592,-3.0584,-3.0581,-3.0552,-3.0554,-3.0554,-3.0605,-3.0529,-3.053,-3.0532,-3.0532,-3.0722,-3.0726,0,0,0,0,0,0,-3.0691,-3.0683,-3.0699,-3.0697,-3.0656,-3.063,-3.0624,-3.0633,-3.0596,-3.0587,-3.0584,-3.0576,-3.0553,-3.0552,-3.0552,-3.0649,-3.0531,-3.0532,-3.0534,-3.0719,-3.0723,-3.0727,0,0,0,0,0,0,-3.0691,-3.0693,-3.0701,-3.0688,-3.0687,-3.0635,-3.0646,-3.0635,-3.0636,-3.059,-3.058,-3.0597,-3.055,-3.055,-3.0595,-3.0646,-3.0533,-3.0535,-3.0714,-3.072,-3.0725,-3.0845,0,0,0,0,0,0,-3.069,-3.0694,-3.0726,-3.0689,-3.0688,-3.0744,-3.0649,-3.0636,-3.064,-3.0629,-3.0599,-3.059,-3.0547,-3.0592,-3.0597,-3.0647,-3.0537,-3.0709,-3.0717,-3.0723,-3.0836,-3.0854,-3.0869,0,0,0,0,0,-3.069,-3.0762,-3.0728,-3.0731,-3.0727,-3.0747,-3.0746,-3.0694,-3.0645,-3.0676,-3.0646,-3.0591,-3.064,-3.0598,-3.0602,-3.0654,-3.0706,-3.0715,-3.0723,-3.0828,-3.085,-3.0869,0,0,0,0,0,0,-3.0807,-3.0756,-3.0718,-3.078,-3.0769,-3.0728,-3.0766,-3.0719,-3.0722,-3.0711,-3.0647,-3.0641,-3.0695,-3.0679,-3.0633,-3.0734,-3.0664,-3.0674,-3.0743,-3.0763,-3.078,-3.0782,-3.0538,0,0,0,0,0,-3.084,-3.086,-3.0814,-3.0874,-3.087,-3.082,-3.0826,-3.0787,-3.0773,-3.0768,-3.0741,-3.073,-3.0742,-3.0752,-3.0761,-3.0833,-3.0825,-3.0871,-3.0888,-3.0901,-3.0911,-3.0946,-3.0966,-3.0756,-3.0756,-3.0756,0,0,-3.0908,-3.0883,-3.0899,-3.0896,-3.0883,-3.0905,-3.0816,-3.0844,-3.086,-3.0772,-3.0812,-3.0793,-3.0776,-3.0834,-3.0859,-3.0822,-3.0967,-3.0913,-3.0924,-3.0925,-3.0957,-3.0977,-3.0995,-3.0762,-3.0761,-3.076,0,0,-3.1043,-3.1027,-3.1073,-3.1061,-3.1041,-3.1007,-3.1019,-3.0985,-3.0968,-3.1008,-3.0942,-3.096,-3.0983,-3.0973,-3.0972,-3.1103,-3.1052,-3.1108,-3.1194,-3.123,-3.1246,-3.1261,-3.1306,-3.1323,-3.1117,-3.1117,-3.1117,0,-3.1131,-3.1161,-3.1104,-3.1135,-3.1135,-3.1056,-3.1102,-3.1094,-3.1079,-3.1081,-3.104,-3.1067,-3.105,-3.1104,-3.1136,-3.1138,-3.1148,-3.111,-3.1249,-3.1262,-3.1275,-3.1317,-3.1335,-3.1124,-3.1123,-3.1123,-3.1122,0,-3.1269,-3.1291,-3.1331,-3.1317,-3.1322,-3.1361,-3.131,-3.1322,-3.1282,-3.1252,-3.1293,-3.127,-3.1272,-3.1282,-3.1245,-3.1332,-3.1309,-3.126,-3.1188,-3.1303,-3.1341,-3.1357,-3.1134,-3.1131,-3.1129,-3.1128,0,0,-3.1477,-3.143,-3.1445,-3.1437,-3.1409,-3.1425,-3.1461,-3.1462,-3.1473,-3.1465,-3.1493,-3.1514,-3.1467,-3.1465,-3.1426,-3.1457,-3.1561,-3.1403,-3.1402,-3.1432,-3.1653,-3.169,-3.171,-3.1527,-3.153,-3.1532,-3.1654,0,-3.1604,-3.1661,-3.1609,-3.1676,-3.1695,-3.162,-3.165,-3.1637,-3.161,-3.1622,-3.1593,-3.1608,-3.1546,-3.1544,-3.1572,-3.1542,-3.1604,-3.1533,-3.1551,-3.1553,-3.1557,-3.173,-3.1769,-3.1886,-3.1669,-3.1672,-3.1674,0,-3.176,-3.1757,-3.1826,-3.1792,-3.1798,-3.1826,-3.1823,-3.1836,-3.1819,-3.1797,-3.1794,-3.1745,-3.1777,-3.1708,-3.1751,-3.1703,-3.1708,-3.1695,-3.1698,-3.1697,-3.162,-3.1733,-3.1922,-3.1939,-3.1697,-3.1695,-3.1694,0,-3.1903,-3.1917,-3.1959,-3.1955,-3.1917,-3.1938,-3.1924,-3.1903,-3.1906,-3.1904,-3.1905,-3.1907,-3.1908,-3.191,-3.1863,-3.1817,-3.1912,-3.1838,-3.1894,-3.1895,-3.1916,-3.1916,-3.2108,-3.1922,-3.1922,-3.1922,-3.1921,0,-3.2049,-3.2094,-3.2023,-3.2049,-3.2096,-3.2037,-3.2085,-3.2063,-3.2045,-3.2065,-3.2001,-3.2021,-3.1958,-3.1972,-3.1935,-3.1976,-3.1977,-3.196,-3.1949,-3.1965,-3.1967,-3.1966,-3.1956,-3.1926,-3.1925,-3.1924,-3.1924,0,-3.2217,-3.2171,-3.2212,-3.2172,-3.2163,-3.22,-3.2165,-3.2188,-3.2156,-3.2183,-3.2186,-3.2137,-3.2149,-3.2103,-3.2108,-3.2084,-3.2143,-3.212,-3.2149,-3.2141,-3.2199,-3.2193,-3.2396,-3.2419,-3.2221,-3.2223,-3.2224,0,-3.2313,-3.2345,-3.2308,-3.2316,-3.2304,-3.2319,-3.2322,-3.2265,-3.2271,-3.2253,-3.2278,-3.2285,-3.2287,-3.2311,-3.2277,-3.228,-3.2256,-3.2327,-3.2256,-3.227,-3.2255,-3.2253,-3.2255,-3.2341,-3.2344,-3.2346,-3.2347,0,-3.2487,-3.2462,-3.2469,-3.2467,-3.2472,-3.2469,-3.246,-3.2471,-3.241,-3.242,-3.2431,-3.2433,-3.2438,-3.2446,-3.2442,-3.2427,-3.2377,-3.237,-3.2382,-3.2398,-3.2413,-3.2404,-3.2187,-3.2365,-3.2363,-3.2362,-3.2361,-3.236,-3.262,-3.2645,-3.2622,-3.2631,-3.2619,-3.2612,-3.2631,-3.2601,-3.261,-3.2608,-3.2574,-3.2593,-3.2573,-3.2563,-3.2553,-3.2566,-3.2533,-3.2552,-3.2557,-3.2562,-3.2571,-3.2412,-3.2566,-3.2565,-3.2564,-3.2564,-3.2564,0,-3.279,-3.2771,-3.278,-3.277,-3.2777,-3.2729,-3.2717,-3.2726,-3.2742,-3.2729,-3.2732,-3.2745,-3.2752,-3.2718,-3.272,-3.2737,-3.2714,-3.274,-3.2737,-3.2734,-3.2601,-3.2589,-3.2758,-3.2758,-3.2758,-3.2758,-3.2758,-3.2758,-3.2879,-3.2917,-3.289,-3.2921,-3.2902,-3.2918,-3.2916,-3.2909,-3.2898,-3.2915,-3.292,-3.2897,-3.2875,-3.2874,-3.2879,-3.2868,-3.2872,-3.2905,-3.2887,-3.2763,-3.2744,-3.2726,-3.2714,-3.2906,-3.2906,-3.3018,-3.3019,-3.302]},{"header":{"parameterUnit":"m.s-1","parameterCategory":1,"la1":30.2991,"la2":30.254,"lo1":-89.0895,"lo2":-89.0444,"dy":0.0017,"dx":0.0017,"nx":28,"ny":28,"refTime":"2024-09-01T09:00:00:Z","depth":0,"parameterNumber":3,"parameterNumberName":"V-component_of_WINDS"},"data":[0,0,0,0,0,0,0,0,0,0,0,0,0,0,0,0,0,0,0,0,0,0,0,0,0,0,0,0,0,0,0,0,0,0,0,0,0,0,0,0,0,0,0,0,0,0,0,0,0,0,0,0,0,0,0,0,0,0,-3.0985,-3.0985,0,-3.0968,-3.0967,-3.0967,-3.0892,-3.0891,-3.0889,-3.0887,-3.0869,-3.087,-3.0871,0,0,0,0,0,0,0,0,0,0,0,0,0,-3.095,-3.0952,-3.0985,-3.0985,-3.0984,-3.0968,-3.0967,-3.0967,-3.0893,-3.089,-3.0888,-3.0886,-3.0869,-3.087,-3.0871,0,0,0,0,0,0,0,0,0,0,0,0,0,-3.0953,-3.0952,-3.0985,-3.0945,-3.0941,-3.0968,-3.0967,-3.0967,-3.0893,-3.089,-3.0888,-3.0885,-3.0868,-3.087,-3.0871,-3.0934,0,0,-3.0877,-3.0877,0,0,0,0,0,0,0,0,-3.0953,-3.0954,-3.0951,-3.0948,-3.0944,-3.0929,-3.0948,-3.0956,-3.0894,-3.0911,-3.0887,-3.0884,-3.0891,-3.0891,-3.0893,-3.0933,-3.0933,-3.0877,-3.0878,-3.0879,-3.0879,0,0,0,0,0,0,0,-3.0953,-3.0954,-3.0978,-3.0951,-3.0947,-3.0927,-3.0925,-3.095,-3.0916,-3.091,-3.0904,-3.0903,-3.0889,-3.0892,-3.0892,-3.0932,-3.0877,-3.0878,-3.0879,-3.088,-3.102,-3.1022,0,0,0,0,0,0,-3.0958,-3.0955,-3.0978,-3.0977,-3.0942,-3.093,-3.0927,-3.0937,-3.0916,-3.091,-3.0905,-3.09,-3.089,-3.089,-3.0891,-3.0961,-3.0879,-3.088,-3.0881,-3.1017,-3.102,-3.1023,0,0,0,0,0,0,-3.0958,-3.0961,-3.0979,-3.0964,-3.0965,-3.0933,-3.0945,-3.0938,-3.0941,-3.0912,-3.0906,-3.0915,-3.0888,-3.0889,-3.0923,-3.096,-3.0881,-3.0883,-3.1014,-3.1018,-3.1022,-3.1103,0,0,0,0,0,0,-3.0957,-3.0961,-3.0986,-3.0966,-3.0966,-3.1013,-3.0947,-3.0939,-3.0944,-3.0936,-3.092,-3.0914,-3.0886,-3.0921,-3.0925,-3.0961,-3.0884,-3.1011,-3.1016,-3.1021,-3.1097,-3.111,-3.112,0,0,0,0,0,-3.0956,-3.101,-3.0987,-3.0991,-3.0996,-3.1015,-3.1015,-3.0982,-3.0947,-3.0971,-3.0952,-3.0915,-3.0955,-3.0926,-3.0929,-3.0966,-3.1008,-3.1014,-3.102,-3.1092,-3.1107,-3.112,0,0,0,0,0,0,-3.1036,-3.1007,-3.0981,-3.103,-3.1026,-3.1002,-3.1031,-3.0999,-3.1004,-3.0997,-3.0955,-3.0952,-3.0992,-3.0982,-3.095,-3.1024,-3.0975,-3.0982,-3.1029,-3.1043,-3.1054,-3.1055,-3.0885,0,0,0,0,0,-3.1059,-3.1077,-3.1051,-3.1096,-3.1095,-3.1064,-3.1071,-3.1045,-3.1038,-3.1036,-3.102,-3.1014,-3.1025,-3.1034,-3.1043,-3.1096,-3.109,-3.1122,-3.1134,-3.1143,-3.115,-3.1175,-3.1188,-3.1043,-3.1043,-3.1043,0,0,-3.1107,-3.1094,-3.1108,-3.1112,-3.1105,-3.1124,-3.1063,-3.1086,-3.1098,-3.1039,-3.107,-3.1058,-3.1049,-3.1093,-3.1111,-3.1086,-3.1188,-3.1151,-3.1159,-3.116,-3.1182,-3.1196,-3.1208,-3.1047,-3.1047,-3.1046,0,0,-3.1204,-3.1197,-3.1233,-3.1227,-3.1217,-3.1195,-3.1204,-3.1185,-3.1174,-3.1205,-3.116,-3.1174,-3.1195,-3.119,-3.119,-3.1282,-3.1247,-3.1286,-3.1346,-3.1371,-3.1382,-3.1392,-3.1423,-3.1435,-3.1293,-3.1293,-3.1293,0,-3.1266,-3.1292,-3.1255,-3.128,-3.1282,-3.1229,-3.1264,-3.126,-3.1254,-3.1256,-3.1228,-3.1251,-3.1241,-3.1282,-3.1304,-3.1306,-3.1313,-3.1288,-3.1383,-3.1393,-3.1402,-3.1431,-3.1443,-3.1297,-3.1297,-3.1296,-3.1296,0,-3.1367,-3.1386,-3.1416,-3.141,-3.1416,-3.1446,-3.1412,-3.1422,-3.1396,-3.1376,-3.1407,-3.1393,-3.1397,-3.1405,-3.1379,-3.1441,-3.1425,-3.1391,-3.1341,-3.1421,-3.1447,-3.1458,-3.1304,-3.1302,-3.1301,-3.13,0,0,-3.1515,-3.1487,-3.1498,-3.1494,-3.1478,-3.1491,-3.1518,-3.1521,-3.153,-3.1527,-3.1547,-3.1565,-3.1532,-3.1532,-3.1505,-3.1527,-3.1598,-3.149,-3.1489,-3.1509,-3.1662,-3.1687,-3.1701,-3.1575,-3.1577,-3.1579,-3.1663,0,-3.1606,-3.165,-3.1616,-3.1666,-3.1682,-3.163,-3.1653,-3.1645,-3.1628,-3.1638,-3.1618,-3.163,-3.1587,-3.1587,-3.1606,-3.1586,-3.1628,-3.1579,-3.1592,-3.1593,-3.1595,-3.1715,-3.1742,-3.1822,-3.1673,-3.1675,-3.1676,0,-3.1719,-3.172,-3.1771,-3.1749,-3.1754,-3.1776,-3.1774,-3.1785,-3.1774,-3.176,-3.1759,-3.1725,-3.1748,-3.17,-3.173,-3.1697,-3.17,-3.1691,-3.1693,-3.1692,-3.1639,-3.1716,-3.1847,-3.1858,-3.1692,-3.1691,-3.169,0,-3.182,-3.1833,-3.1865,-3.1863,-3.1839,-3.1855,-3.1845,-3.1832,-3.1835,-3.1834,-3.1835,-3.1838,-3.1838,-3.184,-3.1807,-3.1775,-3.1841,-3.179,-3.1828,-3.1829,-3.1844,-3.1843,-3.1975,-3.1848,-3.1848,-3.1848,-3.1848,0,-3.1924,-3.1957,-3.1909,-3.1929,-3.1963,-3.1923,-3.1959,-3.1944,-3.1932,-3.1946,-3.1902,-3.1917,-3.1873,-3.1883,-3.1857,-3.1885,-3.1886,-3.1874,-3.1866,-3.1877,-3.1878,-3.1878,-3.1871,-3.1851,-3.185,-3.185,-3.1849,0,-3.2043,-3.2012,-3.2043,-3.2017,-3.2011,-3.2037,-3.2014,-3.2031,-3.2009,-3.2028,-3.203,-3.1997,-3.2005,-3.1973,-3.1977,-3.1959,-3.2,-3.1984,-3.2003,-3.1998,-3.2037,-3.2033,-3.2173,-3.2188,-3.2053,-3.2054,-3.2055,0,-3.2111,-3.2135,-3.2111,-3.2117,-3.211,-3.2121,-3.2124,-3.2085,-3.2089,-3.2077,-3.2094,-3.2099,-3.2101,-3.2117,-3.2092,-3.2094,-3.2077,-3.2126,-3.2077,-3.2086,-3.2076,-3.2074,-3.2076,-3.2136,-3.2137,-3.2139,-3.214,0,-3.2235,-3.2218,-3.2224,-3.2224,-3.2228,-3.2226,-3.2221,-3.2229,-3.2186,-3.2193,-3.2201,-3.2202,-3.2205,-3.221,-3.2206,-3.2195,-3.216,-3.2155,-3.2164,-3.2175,-3.2184,-3.2178,-3.2029,-3.2152,-3.2151,-3.215,-3.2149,-3.2149,-3.233,-3.2347,-3.2332,-3.2339,-3.2331,-3.2327,-3.234,-3.2319,-3.2325,-3.2324,-3.23,-3.2313,-3.2298,-3.229,-3.2282,-3.229,-3.2267,-3.228,-3.2283,-3.2287,-3.2293,-3.2184,-3.229,-3.2289,-3.2289,-3.2289,-3.2288,0,-3.245,-3.2437,-3.2444,-3.2437,-3.2442,-3.2408,-3.24,-3.2407,-3.2418,-3.2408,-3.241,-3.2418,-3.2421,-3.2397,-3.2397,-3.2408,-3.2392,-3.2409,-3.2407,-3.2405,-3.2314,-3.2306,-3.2422,-3.2422,-3.2422,-3.2422,-3.2422,-3.2422,-3.2513,-3.254,-3.2521,-3.2543,-3.253,-3.2541,-3.2539,-3.2534,-3.2526,-3.2536,-3.2539,-3.2523,-3.2506,-3.2504,-3.2505,-3.2498,-3.2499,-3.2522,-3.2509,-3.2425,-3.2412,-3.2399,-3.2391,-3.2523,-3.2523,-3.2599,-3.2599,-3.26]}]]